TimeAKST,TemperatureF,Dew PointF,Humidity,Sea Level PressureIn,VisibilityMPH,Wind Direction,Wind SpeedMPH,Gust SpeedMPH,PrecipitationIn,Events,Conditions,WindDirDegrees,DateUTC
12:53 AM,39.9,28.9,65,29.05,10.0,NW,5.8,-,N/A,,Overcast,320,2012-11-19 09:53:00
1:53 AM,41.0,23.0,49,29.04,10.0,Variable,4.6,-,N/A,,Clear,0,2012-11-19 10:53:00
3:53 AM,41.0,24.1,51,29.04,10.0,SE,8.1,-,N/A,,Overcast,140,2012-11-19 12:53:00
4:53 AM,39.9,24.1,53,29.03,10.0,ESE,24.2,35.7,N/A,,Overcast,110,2012-11-19 13:53:00
5:53 AM,39.0,26.1,60,29.02,10.0,East,23.0,35.7,N/A,,Overcast,100,2012-11-19 14:53:00
6:53 AM,39.0,28.0,65,29.04,10.0,ESE,17.3,32.2,N/A,,Overcast,120,2012-11-19 15:53:00
7:53 AM,41.0,28.0,60,29.06,10.0,ESE,20.7,33.4,N/A,,Overcast,120,2012-11-19 16:53:00
8:53 AM,39.9,28.0,63,29.06,10.0,ESE,19.6,28.8,N/A,,Mostly Cloudy,110,2012-11-19 17:53:00
9:53 AM,43.0,27.0,53,29.08,10.0,East,18.4,29.9,N/A,,Overcast,100,2012-11-19 18:53:00
10:53 AM,42.1,28.0,58,29.11,10.0,ESE,18.4,24.2,N/A,,Scattered Clouds,120,2012-11-19 19:53:00
11:53 AM,42.1,27.0,55,29.11,10.0,ESE,17.3,25.3,N/A,,Scattered Clouds,110,2012-11-19 20:53:00
12:53 PM,41.0,28.0,60,29.11,10.0,East,15.0,27.6,N/A,,Overcast,100,2012-11-19 21:53:00
1:53 PM,41.0,27.0,57,29.13,10.0,ESE,11.5,26.5,N/A,,Mostly Cloudy,110,2012-11-19 22:53:00
2:53 PM,41.0,27.0,57,29.15,10.0,ESE,17.3,23.0,N/A,,Overcast,120,2012-11-19 23:53:00
3:53 PM,39.9,28.0,63,29.18,10.0,ESE,19.6,23.0,N/A,,Overcast,120,2012-11-20 00:53:00
4:53 PM,41.0,28.0,60,29.20,10.0,ESE,17.3,24.2,N/A,,Overcast,120,2012-11-20 01:53:00
5:53 PM,39.9,28.0,63,29.23,10.0,ESE,17.3,25.3,N/A,,Mostly Cloudy,110,2012-11-20 02:53:00
6:53 PM,39.9,28.0,63,29.25,10.0,ESE,18.4,27.6,N/A,,Mostly Cloudy,110,2012-11-20 03:53:00
7:53 PM,41.0,26.1,55,29.26,10.0,East,15.0,19.6,N/A,,Scattered Clouds,90,2012-11-20 04:53:00
8:53 PM,41.0,25.0,53,29.28,10.0,SE,10.4,-,N/A,,Overcast,130,2012-11-20 05:53:00
9:14 PM,41.0,26.6,57,29.28,10.0,ESE,13.8,25.3,N/A,,Overcast,120,2012-11-20 06:14:00
9:53 PM,41.0,27.0,57,29.29,10.0,ESE,16.1,29.9,N/A,,Overcast,120,2012-11-20 06:53:00
10:53 PM,39.9,26.1,58,29.31,10.0,East,18.4,24.2,N/A,,Mostly Cloudy,100,2012-11-20 07:53:00
11:53 PM,39.9,26.1,58,29.32,10.0,East,16.1,26.5,N/A,,Partly Cloudy,100,2012-11-20 08:53:00